[[{"header":{"parameterUnit":"m.s-1","parameterCategory":1,"la1":30.2991,"la2":30.254,"lo1":-89.0895,"lo2":-89.0444,"dy":0.0017,"dx":0.0017,"nx":28,"ny":28,"refTime":"2026-01-05T03:00:00:Z","depth":0,"parameterNumber":2,"parameterNumberName":"U-component_of_WINDS"},"data":[0,0,0,0,0,0,0,0,0,0,0,0,0,0,0,0,0,0,0,0,0,0,0,0,0,0,0,0,0,0,0,0,0,0,0,0,0,0,0,0,0,0,0,0,0,0,0,0,0,0,0,0,0,0,0,0,0,0,-1.3419,-1.342,0,-1.3475,-1.3476,-1.3476,-1.3461,-1.346,-1.3459,-1.3458,-1.3519,-1.3522,-1.3524,0,0,0,0,0,0,0,0,0,0,0,0,0,-1.3305,-1.3307,-1.3419,-1.342,-1.3421,-1.3475,-1.3476,-1.3476,-1.3461,-1.346,-1.3458,-1.3457,-1.3518,-1.3522,-1.3525,0,0,0,0,0,0,0,0,0,0,0,0,0,-1.3357,-1.3308,-1.3419,-1.3419,-1.342,-1.3475,-1.3476,-1.3477,-1.3462,-1.346,-1.3458,-1.3456,-1.3517,-1.3521,-1.3525,-1.3584,0,0,-1.3538,-1.3539,0,0,0,0,0,0,0,0,-1.3354,-1.3361,-1.3419,-1.3419,-1.342,-1.3459,-1.3458,-1.3513,-1.3462,-1.3446,-1.3458,-1.3456,-1.3501,-1.3506,-1.3521,-1.3587,-1.359,-1.3538,-1.354,-1.3542,-1.3543,0,0,0,0,0,0,0,-1.335,-1.3359,-1.3441,-1.342,-1.342,-1.3419,-1.3424,-1.3468,-1.3482,-1.3447,-1.3446,-1.3453,-1.3501,-1.3517,-1.3522,-1.3591,-1.3538,-1.3541,-1.3544,-1.3545,-1.3711,-1.3713,0,0,0,0,0,0,-1.3345,-1.3356,-1.344,-1.3443,-1.3382,-1.3422,-1.3428,-1.3449,-1.3482,-1.3485,-1.3454,-1.3452,-1.3511,-1.3517,-1.3524,-1.3596,-1.3542,-1.3546,-1.3548,-1.3709,-1.3711,-1.3713,0,0,0,0,0,0,-1.3343,-1.3353,-1.3437,-1.3399,-1.341,-1.3426,-1.3449,-1.3451,-1.3466,-1.3487,-1.349,-1.3467,-1.351,-1.3518,-1.357,-1.3598,-1.3548,-1.3551,-1.3707,-1.371,-1.3712,-1.3741,0,0,0,0,0,0,-1.334,-1.3352,-1.3373,-1.34,-1.3412,-1.348,-1.345,-1.3453,-1.3473,-1.347,-1.35,-1.3503,-1.3509,-1.3564,-1.3574,-1.3603,-1.3555,-1.3704,-1.3708,-1.3711,-1.3737,-1.3744,-1.375,0,0,0,0,0,-1.3336,-1.338,-1.3375,-1.3385,-1.3438,-1.3482,-1.3489,-1.3493,-1.3475,-1.3497,-1.3511,-1.3503,-1.3594,-1.3569,-1.358,-1.3611,-1.3702,-1.3707,-1.3711,-1.3734,-1.3743,-1.375,0,0,0,0,0,0,-1.3358,-1.3383,-1.3378,-1.3431,-1.3454,-1.3479,-1.3507,-1.3502,-1.3532,-1.3528,-1.3533,-1.3541,-1.3593,-1.3607,-1.3579,-1.3671,-1.3646,-1.3652,-1.3659,-1.3668,-1.3674,-1.3669,-1.3558,0,0,0,0,0,-1.3368,-1.34,-1.3421,-1.3467,-1.3479,-1.3491,-1.351,-1.3511,-1.3536,-1.3546,-1.3564,-1.359,-1.3624,-1.3647,-1.368,-1.374,-1.3747,-1.3767,-1.3773,-1.3778,-1.3784,-1.3818,-1.3828,-1.3728,-1.3728,-1.3728,0,0,-1.3392,-1.3409,-1.3429,-1.3472,-1.349,-1.3524,-1.3499,-1.3536,-1.3563,-1.3552,-1.3601,-1.3616,-1.3645,-1.3701,-1.3727,-1.3715,-1.3813,-1.3784,-1.3788,-1.3791,-1.3824,-1.3833,-1.3842,-1.3731,-1.373,-1.373,0,0,-1.3451,-1.3467,-1.3507,-1.3526,-1.3553,-1.3562,-1.3571,-1.3597,-1.3606,-1.3655,-1.3649,-1.3681,-1.374,-1.3761,-1.378,-1.385,-1.3844,-1.3861,-1.3894,-1.3928,-1.3935,-1.3942,-1.3968,-1.3977,-1.3867,-1.3867,-1.3867,0,-1.3476,-1.3526,-1.3529,-1.3566,-1.3586,-1.3578,-1.3619,-1.3638,-1.3675,-1.369,-1.3676,-1.375,-1.377,-1.3831,-1.3848,-1.3864,-1.3876,-1.3857,-1.3934,-1.3941,-1.3948,-1.3972,-1.3982,-1.3869,-1.3868,-1.3868,-1.3868,0,-1.3557,-1.3591,-1.3621,-1.3656,-1.3679,-1.3719,-1.3729,-1.3752,-1.3752,-1.3763,-1.3814,-1.3837,-1.3875,-1.389,-1.3891,-1.3953,-1.3944,-1.3932,-1.3907,-1.3959,-1.3982,-1.3991,-1.3871,-1.3871,-1.387,-1.387,0,0,-1.363,-1.3667,-1.3677,-1.3694,-1.3724,-1.3752,-1.3793,-1.3829,-1.3849,-1.3876,-1.3911,-1.3962,-1.3951,-1.3972,-1.3976,-1.4005,-1.406,-1.3989,-1.399,-1.4002,-1.4131,-1.414,-1.415,-1.4056,-1.4058,-1.406,-1.4129,0,-1.3692,-1.3761,-1.3765,-1.3828,-1.3862,-1.3855,-1.3891,-1.3915,-1.3926,-1.3957,-1.3971,-1.4007,-1.399,-1.4003,-1.4031,-1.4047,-1.4086,-1.4042,-1.409,-1.4092,-1.4082,-1.4162,-1.4172,-1.4235,-1.4138,-1.4139,-1.414,0,-1.3773,-1.3801,-1.3867,-1.3894,-1.3909,-1.394,-1.3974,-1.4004,-1.4032,-1.4038,-1.4063,-1.4062,-1.4106,-1.4079,-1.4141,-1.4111,-1.4131,-1.4142,-1.4145,-1.4149,-1.4119,-1.4169,-1.4256,-1.4265,-1.4154,-1.4153,-1.4152,0,-1.3821,-1.3875,-1.3922,-1.3936,-1.3969,-1.3992,-1.4007,-1.4032,-1.4054,-1.4085,-1.41,-1.4136,-1.4155,-1.4184,-1.4194,-1.4174,-1.4256,-1.423,-1.4264,-1.4263,-1.428,-1.4279,-1.4372,-1.4294,-1.4294,-1.4293,-1.4293,0,-1.3889,-1.393,-1.3944,-1.3973,-1.4019,-1.4025,-1.4071,-1.4085,-1.4109,-1.4142,-1.4139,-1.4171,-1.4182,-1.4216,-1.4225,-1.4275,-1.4284,-1.4292,-1.4294,-1.4292,-1.4291,-1.4305,-1.4301,-1.4296,-1.4295,-1.4295,-1.4295,0,-1.395,-1.396,-1.4011,-1.4038,-1.4046,-1.4079,-1.4103,-1.4132,-1.4143,-1.4185,-1.4195,-1.4214,-1.4254,-1.4267,-1.4316,-1.4322,-1.438,-1.4378,-1.437,-1.4371,-1.4404,-1.4401,-1.4508,-1.4523,-1.4436,-1.4436,-1.4437,0,-1.3993,-1.4024,-1.4054,-1.4075,-1.4091,-1.4125,-1.4147,-1.4155,-1.4179,-1.4214,-1.4239,-1.4278,-1.431,-1.4375,-1.4394,-1.4432,-1.4431,-1.4466,-1.4436,-1.4434,-1.4432,-1.443,-1.4433,-1.4471,-1.4472,-1.4473,-1.4473,0,-1.4068,-1.4072,-1.4103,-1.4137,-1.4163,-1.419,-1.4217,-1.4235,-1.4247,-1.4274,-1.4314,-1.4339,-1.4389,-1.4428,-1.4467,-1.4485,-1.4482,-1.4483,-1.4493,-1.4491,-1.4485,-1.4489,-1.4385,-1.448,-1.4479,-1.4479,-1.4479,-1.4478,-1.4121,-1.4149,-1.4175,-1.421,-1.4231,-1.4256,-1.4284,-1.4299,-1.4332,-1.4372,-1.4376,-1.442,-1.4449,-1.45,-1.452,-1.4556,-1.4546,-1.456,-1.4564,-1.4567,-1.457,-1.448,-1.4563,-1.4563,-1.4563,-1.4563,-1.4563,0,-1.4197,-1.4214,-1.4246,-1.4282,-1.4311,-1.4304,-1.4334,-1.4358,-1.4396,-1.4423,-1.4454,-1.4502,-1.4541,-1.4563,-1.4603,-1.4627,-1.4627,-1.4637,-1.4636,-1.464,-1.4576,-1.4564,-1.4637,-1.4637,-1.4637,-1.4637,-1.4637,-1.4637,-1.424,-1.4287,-1.4294,-1.4352,-1.4369,-1.441,-1.4428,-1.4452,-1.4473,-1.4525,-1.4557,-1.4571,-1.4597,-1.4638,-1.4675,-1.468,-1.4695,-1.4707,-1.4712,-1.4652,-1.4644,-1.4637,-1.4625,-1.471,-1.471,-1.4772,-1.4773,-1.4773]},{"header":{"parameterUnit":"m.s-1","parameterCategory":1,"la1":30.2991,"la2":30.254,"lo1":-89.0895,"lo2":-89.0444,"dy":0.0017,"dx":0.0017,"nx":28,"ny":28,"refTime":"2026-01-05T03:00:00:Z","depth":0,"parameterNumber":3,"parameterNumberName":"V-component_of_WINDS"},"data":[0,0,0,0,0,0,0,0,0,0,0,0,0,0,0,0,0,0,0,0,0,0,0,0,0,0,0,0,0,0,0,0,0,0,0,0,0,0,0,0,0,0,0,0,0,0,0,0,0,0,0,0,0,0,0,0,0,0,1.1843,1.1844,0,1.1921,1.1922,1.1923,1.1936,1.1935,1.1934,1.1934,1.2013,1.2016,1.2019,0,0,0,0,0,0,0,0,0,0,0,0,0,1.1707,1.1709,1.1843,1.1844,1.1845,1.1921,1.1922,1.1923,1.1936,1.1935,1.1934,1.1933,1.2012,1.2016,1.2019,0,0,0,0,0,0,0,0,0,0,0,0,0,1.1773,1.171,1.1843,1.186,1.1863,1.1921,1.1922,1.1923,1.1936,1.1935,1.1934,1.1933,1.2011,1.2015,1.2019,1.2065,0,0,1.2032,1.2034,0,0,0,0,0,0,0,0,1.177,1.1778,1.1857,1.1859,1.1862,1.1917,1.1903,1.1971,1.1936,1.1908,1.1934,1.1932,1.1982,1.1989,1.2006,1.2069,1.2072,1.2032,1.2035,1.2037,1.2038,0,0,0,0,0,0,0,1.1765,1.1775,1.1874,1.1858,1.1861,1.1865,1.1873,1.1916,1.195,1.191,1.1912,1.1921,1.1983,1.2002,1.2007,1.2073,1.2032,1.2036,1.2038,1.204,1.2181,1.2182,0,0,0,0,0,0,1.1757,1.1771,1.1871,1.1876,1.1812,1.1868,1.1878,1.1901,1.1949,1.1956,1.1921,1.1921,1.1995,1.2003,1.201,1.2069,1.2037,1.204,1.2043,1.2179,1.2181,1.2182,0,0,0,0,0,0,1.1754,1.1766,1.1868,1.1824,1.1837,1.1872,1.1898,1.1903,1.1921,1.1958,1.1964,1.1934,1.1994,1.2005,1.2052,1.2071,1.2042,1.2046,1.2178,1.218,1.2182,1.2184,0,0,0,0,0,0,1.175,1.1765,1.1782,1.1824,1.184,1.1908,1.1899,1.1905,1.1928,1.1928,1.1971,1.1977,1.1994,1.2046,1.2056,1.2077,1.2049,1.2176,1.2179,1.2181,1.2183,1.2186,1.2189,0,0,0,0,0,1.1745,1.1779,1.1783,1.1795,1.1862,1.1909,1.1918,1.1937,1.1929,1.1947,1.1972,1.1975,1.2068,1.205,1.2062,1.2084,1.2175,1.2178,1.2181,1.2181,1.2185,1.2189,0,0,0,0,0,0,1.1737,1.1785,1.1789,1.1838,1.1869,1.1911,1.1934,1.1941,1.1975,1.1974,1.1997,1.2006,1.2053,1.2073,1.2053,1.2132,1.2121,1.2126,1.2117,1.2121,1.2125,1.2119,1.2053,0,0,0,0,0,1.1741,1.1775,1.1815,1.1854,1.187,1.1899,1.1921,1.1933,1.1967,1.198,1.2008,1.204,1.2077,1.21,1.2136,1.2186,1.2196,1.2207,1.221,1.2213,1.2217,1.2247,1.2253,1.2192,1.2192,1.2191,0,0,1.175,1.178,1.18,1.1853,1.1879,1.1915,1.191,1.1948,1.1975,1.1986,1.2033,1.2054,1.2092,1.2142,1.2165,1.216,1.2236,1.2216,1.2218,1.2221,1.225,1.2256,1.2261,1.2193,1.2193,1.2193,0,0,1.1783,1.1809,1.1845,1.1872,1.1912,1.1931,1.194,1.1981,1.1996,1.2044,1.2054,1.2086,1.2148,1.2175,1.2197,1.2244,1.2249,1.2255,1.2271,1.23,1.2305,1.231,1.2327,1.2333,1.2259,1.2259,1.2259,0,1.1789,1.1842,1.1863,1.1901,1.1925,1.1937,1.1975,1.2,1.2049,1.2065,1.2059,1.2139,1.2165,1.2222,1.2234,1.2251,1.2262,1.225,1.2303,1.2307,1.2312,1.2329,1.2336,1.226,1.226,1.2259,1.2259,0,1.1848,1.1885,1.191,1.1958,1.1985,1.2022,1.2049,1.2074,1.2085,1.2105,1.2155,1.2187,1.223,1.2245,1.2255,1.2304,1.23,1.2298,1.2287,1.2318,1.2335,1.2341,1.226,1.226,1.226,1.226,0,0,1.1877,1.1938,1.1947,1.197,1.2015,1.2045,1.2083,1.2126,1.2148,1.2182,1.2215,1.2269,1.2268,1.2293,1.2307,1.2332,1.2369,1.2328,1.2329,1.2335,1.2426,1.2428,1.2435,1.2373,1.2374,1.2375,1.2424,0,1.1917,1.1986,1.2007,1.2066,1.2101,1.2115,1.2149,1.2181,1.2202,1.2236,1.2259,1.2297,1.2292,1.2308,1.2334,1.2359,1.2388,1.2356,1.2405,1.2407,1.2396,1.2444,1.2445,1.2489,1.243,1.2431,1.2432,0,1.1972,1.2009,1.2071,1.2114,1.2129,1.2159,1.2202,1.2233,1.2271,1.2284,1.2313,1.2326,1.2368,1.2355,1.2414,1.2392,1.2413,1.2429,1.2431,1.2437,1.2421,1.2451,1.2503,1.251,1.2442,1.2442,1.2441,0,1.1989,1.2053,1.2099,1.2118,1.2169,1.219,1.2213,1.2249,1.2274,1.2311,1.2328,1.2369,1.2392,1.2424,1.2447,1.2435,1.2505,1.2493,1.2518,1.2517,1.2532,1.2531,1.2588,1.2545,1.2545,1.2545,1.2544,0,1.2032,1.2069,1.2108,1.2136,1.2179,1.2204,1.2246,1.2269,1.2302,1.2335,1.235,1.2381,1.241,1.2446,1.2464,1.2511,1.2521,1.2534,1.2538,1.2533,1.2531,1.2548,1.2545,1.2546,1.2546,1.2546,1.2545,0,1.2058,1.2085,1.2136,1.2181,1.2193,1.2223,1.2262,1.229,1.2312,1.2355,1.2367,1.2401,1.2444,1.2471,1.2525,1.2538,1.259,1.2593,1.2577,1.2579,1.2603,1.2601,1.2674,1.2685,1.2633,1.2634,1.2634,0,1.2083,1.2113,1.2161,1.2185,1.2208,1.2246,1.2272,1.2297,1.2324,1.237,1.2394,1.2438,1.2474,1.2542,1.2573,1.2615,1.2619,1.2642,1.2626,1.262,1.2621,1.2619,1.2623,1.2645,1.2645,1.2646,1.2646,0,1.2126,1.2138,1.2175,1.2218,1.2249,1.2283,1.2318,1.2336,1.2368,1.2398,1.2442,1.247,1.2527,1.2571,1.2616,1.264,1.2649,1.2651,1.2659,1.2654,1.2644,1.2651,1.2585,1.2649,1.2649,1.2649,1.2648,1.2648,1.2153,1.2181,1.222,1.2261,1.229,1.2323,1.2352,1.2379,1.2416,1.2464,1.2477,1.2524,1.2563,1.2624,1.2649,1.2687,1.2684,1.2695,1.2698,1.2701,1.2702,1.2638,1.2695,1.2695,1.2695,1.2695,1.2695,0,1.2197,1.2224,1.2262,1.231,1.2343,1.2349,1.2388,1.2416,1.2457,1.2492,1.2528,1.258,1.2624,1.2658,1.2703,1.2726,1.2732,1.2737,1.2736,1.2742,1.2701,1.269,1.2732,1.2732,1.2732,1.2732,1.2732,1.2732,1.2224,1.2272,1.229,1.2353,1.2379,1.2425,1.2447,1.2478,1.2506,1.2564,1.26,1.2622,1.2658,1.2706,1.2746,1.2755,1.2772,1.2777,1.2787,1.2748,1.2744,1.274,1.273,1.278,1.278,1.2824,1.2824,1.2825]}]]